Location: Chervonnoye
(48.6000°N, 34.4000°E)
Time: 08:17:04
(UTC+00:00)

deb NNS O-6 - Visible Passes

Search period start: 21 June 2021 00:00
Search period end: 01 July 2021 00:00
Orbit: 827 x 954 km, 89.1° (Epoch: 20 June)

Date Brightness Start Highest point End Pass type
(mag) Time Alt. Az. Time Alt. Az. Time Alt. Az.
21 Jun ? 18:28:27 10° NNW 18:33:10 30° WNW 18:37:58 10° SW visible
22 Jun ? 18:28:26 10° NNW 18:33:02 28° WNW 18:37:43 10° SW visible
23 Jun ? 18:28:24 10° NNW 18:32:54 26° WNW 18:37:28 10° SW visible
24 Jun ? 18:28:24 10° NNW 18:32:46 24° WNW 18:37:11 10° SW visible
25 Jun ? 18:28:23 10° NNW 18:32:36 23° WNW 18:36:54 10° SW visible
26 Jun ? 18:28:23 10° NNW 18:32:27 21° WNW 18:36:36 10° WSW visible
27 Jun ? 18:28:24 10° NNW 18:32:18 20° WNW 18:36:16 10° WSW visible
28 Jun ? 18:28:25 10° NNW 18:32:09 19° WNW 18:35:55 10° WSW visible
29 Jun ? 18:28:27 10° NNW 18:31:59 17° WNW 18:35:34 10° WSW visible
30 Jun ? 18:28:30 10° NW 18:31:49 16° WNW 18:35:10 10° WSW visible
